Find Starlink 5405

NORAD ID: 54863 Int'l Des: 2022-177 Owner: SPXS Country: US Constellation: starlink operational
LEOCIRCULAR

現在のビュー

3D地球を読み込み中...

About Starlink 5405

Starlink 5405 (NORAD 54863) is a starlink constellation satellite (v1.5) launched Dec 28, 2022 by SPXS of US. It operates in LEO, CIRCULAR orbit with a mass of 305.00 kg.

Starlink 5405について

説明を読み込み中...

次回通過

Passes for default location (London). Set your location on the main map for personalized predictions.

高度履歴

Loading altitude history...

軌道要素

1 54863U 22177AV 26173.26401665 -.00000044 00000-0 79144-5 0 9993
2 54863 43.0028 251.0247 0001332 290.5199 69.5509 15.27574872193083
Epoch: Jun 22, 2026 • Age: 31 hours

現在のステータス

高度 494.7 km
速度 7.62 km/s
衛星直下点 -41.25°S, 61.76°E
打ち上げ日 Dec 28, 2022
運用期間 3.4 years
タイプ internet

技術仕様

分類 Payload
質量 305.00 kg
乾燥質量 290.00 kg
総質量 305.00 kg
長さ 0.20 m
直径 2.80 m
スパン 9.00 m
形状 Box + pan
製造者 SPXS
バスタイプ Starlink
フェーズステータス In Orbit
所有者/国 SPXS/US

Most Searched